WC1Z Weather Reports


Display with metric or nautical units.
time (UTC)temp
F
wind
direction
speed
MPH
gust
MPH
rain 1hr
in
rain 24hr
in
rain mn
in
humidity
%
barometer
mb
20260903230700 89 171 4.0 6.0 0.00 0.00 0.00 66 1012.6
20260903230200 89 163 6.0 7.0 0.00 0.00 0.00 66 1012.7
20260903225702 89 162 4.0 7.0 0.00 0.00 0.00 66 1012.7
20260903225200 89 114 2.0 4.0 0.00 0.00 0.00 66 1012.6
20260903224701 89 190 3.0 5.0 0.00 0.00 0.00 66 1012.7
20260903224201 89 199 2.0 3.0 0.00 0.00 0.00 67 1012.8
20260903223700 89 164 7.0 9.0 0.00 0.00 0.00 66 1012.8
20260903223200 89 161 4.0 5.0 0.00 0.00 0.00 67 1012.8
20260903222700 89 172 4.0 7.0 0.00 0.00 0.00 68 1012.8
20260903222200 89 162 5.0 7.0 0.00 0.00 0.00 68 1012.9
20260903221701 89 115 4.0 6.0 0.00 0.00 0.00 68 1012.9
20260903221200 89 182 4.0 7.0 0.00 0.00 0.00 67 1013.1
20260903220700 89 177 3.0 7.0 0.00 0.00 0.00 68 1013.1
20260903220200 89 189 5.0 8.0 0.00 0.00 0.00 67 1013.1
20260903215700 89 184 5.0 9.0 0.00 0.00 0.00 68 1013.2
20260903215202 89 171 5.0 9.0 0.00 0.00 0.00 68 1013.3
20260903214702 88 179 5.0 8.0 0.00 0.00 0.00 69 1013.4
20260903214201 88 167 6.0 9.0 0.00 0.00 0.00 69 1013.4
20260903213700 88 123 5.0 8.0 0.00 0.00 0.00 69 1013.5
20260903213200 89 149 5.0 7.0 0.00 0.00 0.00 69 1013.5
20260903212700 89 150 4.0 6.0 0.00 0.00 0.00 70 1013.6
20260903212201 89 168 4.0 8.0 0.00 0.00 0.00 70 1013.6
20260903211701 88 145 3.0 6.0 0.00 0.00 0.00 69 1013.6
20260903211201 89 158 5.0 8.0 0.00 0.00 0.00 69 1013.6
20260903210701 88 172 7.0 11.0 0.00 0.00 0.00 69 1013.7
20260903210200 88 180 7.0 11.0 0.00 0.00 0.00 70 1013.7
20260903205700 88 167 5.0 9.0 0.00 0.00 0.00 69 1013.8
20260903205200 88 171 6.0 7.0 0.00 0.00 0.00 70 1013.8
20260903204701 87 177 5.0 9.0 0.00 0.00 0.00 69 1013.9
20260903204201 86 115 2.0 5.0 0.00 0.00 0.00 71 1013.9
20260903203700 86 168 6.0 10.0 0.00 0.00 0.00 72 1013.9
20260903203207 86 160 2.0 4.0 0.00 0.00 0.00 74 1013.9
20260903202700 85 168 4.0 5.0 0.00 0.00 0.00 73 1013.9
20260903202200 85 147 3.0 4.0 0.00 0.00 0.00 74 1013.9
20260903201701 85 157 5.0 7.0 0.00 0.00 0.00 74 1014.0
20260903201202 85 161 6.0 9.0 0.00 0.00 0.00 73 1014.0
20260903200700 86 160 4.0 8.0 0.00 0.00 0.00 72 1014.0
20260903200200 86 107 5.0 7.0 0.00 0.00 0.00 73 1014.0
20260903195701 86 128 4.0 6.0 0.00 0.00 0.00 72 1014.0
20260903195201 87 126 5.0 11.0 0.00 0.00 0.00 72 1014.0
20260903194701 88 124 6.0 11.0 0.00 0.00 0.00 71 1013.8
20260903194200 89 173 7.0 12.0 0.00 0.00 0.00 70 1013.9
20260903193700 90 187 4.0 6.0 0.00 0.00 0.00 63 1013.9
20260903193201 90 194 3.0 4.0 0.00 0.00 0.00 63 1014.0
20260903192700 90 164 4.0 6.0 0.00 0.00 0.00 61 1014.0
20260903192204 91 145 4.0 5.0 0.00 0.00 0.00 59 1014.1
20260903191700 91 183 4.0 4.0 0.00 0.00 0.00 58 1014.2
20260903191200 92 189 5.0 7.0 0.00 0.00 0.00 56 1014.3
20260903190701 91 237 5.0 7.0 0.00 0.00 0.00 61 1014.4
20260903190200 91 219 5.0 8.0 0.00 0.00 0.00 61 1014.4
20260903185700 90 269 4.0 6.0 0.00 0.00 0.00 61 1014.5
20260903185200 90 169 6.0 7.0 0.00 0.00 0.00 61 1014.5
20260903184703 90 127 1.0 3.0 0.00 0.00 0.00 58 1014.5
20260903184200 90 194 3.0 5.0 0.00 0.00 0.00 60 1014.6
20260903183700 91 176 2.0 4.0 0.00 0.00 0.00 59 1014.4
20260903183202 91 201 4.0 6.0 0.00 0.00 0.00 58 1014.3
20260903182700 91 171 6.0 9.0 0.00 0.00 0.00 57 1014.3
20260903182201 91 260 3.0 5.0 0.00 0.00 0.00 60 1014.4
20260903181701 90 277 3.0 5.0 0.00 0.00 0.00 60 1014.4
20260903181200 90 224 5.0 7.0 0.00 0.00 0.00 60 1014.4
20260903180703 90 266 5.0 7.0 0.00 0.00 0.00 59 1014.6
20260903180201 89 317 0.0 2.0 0.00 0.00 0.00 60 1014.7
20260903175700 89 222 4.0 5.0 0.00 0.00 0.00 60 1014.9
20260903175202 90 248 5.0 8.0 0.00 0.00 0.00 64 1015.0
20260903174700 90 209 2.0 5.0 0.00 0.00 0.00 62 1015.1
20260903174201 89 207 3.0 5.0 0.00 0.00 0.00 63 1015.2
20260903173700 89 166 6.0 8.0 0.00 0.00 0.00 63 1015.2
20260903173203 89 223 4.0 8.0 0.00 0.00 0.00 62 1015.4
20260903172701 89 181 1.0 5.0 0.00 0.00 0.00 62 1015.4
20260903172201 88 248 5.0 8.0 0.00 0.00 0.00 63 1015.6
20260903171701 88 255 2.0 4.0 0.00 0.00 0.00 66 1015.6
20260903171206 88 253 5.0 6.0 0.00 0.00 0.00 67 1015.7
20260903170701 88 229 3.0 6.0 0.00 0.00 0.00 67 1015.7
20260903170200 87 233 5.0 6.0 0.00 0.00 0.00 67 1015.7
20260903165700 87 229 4.0 6.0 0.00 0.00 0.00 68 1015.8
20260903165200 86 279 4.0 5.0 0.00 0.00 0.00 69 1015.8
20260903164700 86 268 4.0 6.0 0.00 0.00 0.00 71 1015.8
20260903164202 86 290 4.0 7.0 0.00 0.00 0.00 70 1015.9
20260903163700 86 276 2.0 3.0 0.00 0.00 0.00 71 1015.9
20260903163200 86 250 4.0 5.0 0.00 0.00 0.00 71 1015.9
20260903162701 86 219 2.0 4.0 0.00 0.00 0.00 73 1015.9
20260903162202 86 268 5.0 8.0 0.00 0.00 0.00 73 1015.9
20260903161700 85 266 4.0 5.0 0.00 0.00 0.00 74 1016.0
20260903161201 85 253 4.0 8.0 0.00 0.00 0.00 75 1016.0
20260903160701 85 237 2.0 4.0 0.00 0.00 0.00 76 1016.0
20260903160201 85 262 4.0 6.0 0.00 0.00 0.00 77 1015.9
20260903155700 85 253 3.0 5.0 0.00 0.00 0.00 78 1015.8
20260903155200 84 212 3.0 4.0 0.00 0.00 0.00 77 1015.8
20260903154702 84 247 4.0 5.0 0.00 0.00 0.00 78 1015.9
20260903154200 83 191 3.0 4.0 0.00 0.00 0.00 79 1015.9
20260903153700 83 250 3.0 4.0 0.00 0.00 0.00 81 1015.8
20260903153202 82 299 2.0 4.0 0.00 0.00 0.00 83 1015.8
20260903152701 82 291 3.0 4.0 0.00 0.00 0.00 85 1015.7
20260903152200 82 259 3.0 4.0 0.00 0.00 0.00 84 1015.7
20260903151700 82 312 3.0 4.0 0.00 0.00 0.00 87 1015.8
20260903151201 82 251 5.0 7.0 0.00 0.00 0.00 86 1015.7
20260903150704 82 260 5.0 8.0 0.00 0.00 0.00 87 1015.7
20260903150200 82 248 3.0 4.0 0.00 0.00 0.00 87 1015.8
20260903145700 82 250 0.0 2.0 0.00 0.00 0.00 88 1015.7
20260903145200 82 185 3.0 5.0 0.00 0.00 0.00 90 1015.8
20260903144701 82 212 5.0 7.0 0.00 0.00 0.00 89 1015.7
20260903144201 82 229 4.0 6.0 0.00 0.00 0.00 88 1015.7
20260903143700 82 195 3.0 5.0 0.00 0.00 0.00 88 1015.7
20260903143200 82 212 3.0 4.0 0.00 0.00 0.00 90 1015.7
20260903142701 82 217 3.0 4.0 0.00 0.00 0.00 91 1015.7
20260903142200 82 178 3.0 4.0 0.00 0.00 0.00 90 1015.7
20260903141700 81 182 3.0 4.0 0.00 0.00 0.00 91 1015.8
20260903141201 81 155 4.0 5.0 0.00 0.00 0.00 91 1015.8
20260903140701 81 146 1.0 2.0 0.00 0.00 0.00 92 1015.8
20260903140201 80 161 3.0 4.0 0.00 0.00 0.00 91 1015.7
20260903135700 81 144 1.0 2.0 0.00 0.00 0.00 92 1015.8
20260903135200 80 105 3.0 4.0 0.00 0.00 0.00 92 1015.8
20260903134701 80 158 2.0 4.0 0.00 0.00 0.00 92 1015.8
20260903134200 80 162 4.0 5.0 0.00 0.00 0.00 93 1015.9
20260903133701 80 175 2.0 4.0 0.00 0.00 0.00 94 1015.9
20260903133200 80 126 2.0 4.0 0.00 0.00 0.00 94 1015.9
20260903132700 79 170 3.0 4.0 0.00 0.00 0.00 94 1015.9
20260903132201 79 176 3.0 4.0 0.00 0.00 0.00 95 1015.8
20260903131700 79 178 2.0 4.0 0.00 0.00 0.00 95 1015.8
20260903131201 79 151 2.0 4.0 0.00 0.00 0.00 95 1015.8
20260903130700 78 122 2.0 3.0 0.00 0.00 0.00 95 1015.7
20260903130204 78 105 2.0 2.0 0.00 0.00 0.00 96 1015.6
20260903125701 78 105 2.0 3.0 0.00 0.00 0.00 96 1015.5
20260903125201 78 115 2.0 2.0 0.00 0.00 0.00 96 1015.6
20260903124700 78 125 1.0 1.0 0.00 0.00 0.00 96 1015.6
20260903124200 77 118 2.0 2.0 0.00 0.00 0.00 96 1015.5
20260903123702 77 137 2.0 3.0 0.00 0.00 0.00 96 1015.5
20260903122748 77 166 1.0 1.0 0.00 0.00 0.00 96 1015.5
20260903122204 77 144 2.0 4.0 0.00 0.00 0.00 96 1015.4
20260903121700 76 231 1.0 2.0 0.00 0.00 0.00 96 1015.3
20260903121201 76 130 1.0 3.0 0.00 0.00 0.00 96 1015.2
20260903120701 76 156 2.0 3.0 0.00 0.00 0.00 96 1015.2
20260903120200 76 360 1.0 2.0 0.00 0.00 0.00 96 1015.2
20260903115700 76 131 1.0 1.0 0.00 0.00 0.00 95 1015.1
20260903115200 76 101 1.0 1.0 0.00 0.00 0.00 95 1015.1
20260903114701 76 115 1.0 1.0 0.00 0.00 0.00 95 1015.1
20260903114201 76 142 0.0 1.0 0.00 0.00 0.00 95 1015.0
20260903113701 76 202 1.0 1.0 0.00 0.00 0.00 95 1015.0
20260903113201 76 125 1.0 1.0 0.00 0.00 0.00 95 1015.0
20260903112700 76 115 1.0 1.0 0.00 0.00 0.00 95 1015.0
20260903112200 76 126 1.0 1.0 0.00 0.00 0.00 95 1015.0
20260903111701 76 101 0.0 1.0 0.00 0.00 0.00 95 1015.0
20260903111200 76 90 1.0 1.0 0.00 0.00 0.00 95 1015.0
20260903110700 76 18 1.0 1.0 0.00 0.00 0.00 95 1014.9
20260903110200 76 315 1.0 2.0 0.00 0.00 0.00 95 1014.8
20260903105700 76 190 1.0 2.0 0.00 0.00 0.00 95 1014.8
20260903105201 76 119 1.0 2.0 0.00 0.00 0.00 95 1014.7
20260903104700 76 117 1.0 1.0 0.00 0.00 0.00 95 1014.7
20260903104200 76 49 1.0 2.0 0.00 0.00 0.00 95 1014.7
20260903103700 76 140 2.0 3.0 0.00 0.00 0.00 95 1014.7
20260903103200 77 127 1.0 2.0 0.00 0.00 0.00 95 1014.6
20260903102700 77 156 2.0 3.0 0.00 0.00 0.00 95 1014.5
20260903102201 77 64 1.0 1.0 0.00 0.00 0.00 95 1014.4
20260903101700 77 34 2.0 2.0 0.00 0.00 0.00 95 1014.4
20260903101200 76 113 1.0 1.0 0.00 0.00 0.00 95 1014.3
20260903100700 76 52 1.0 1.0 0.00 0.00 0.00 95 1014.3
20260903100200 76 292 1.0 2.0 0.00 0.00 0.00 95 1014.4
20260903095701 76 171 0.0 1.0 0.00 0.00 0.00 95 1014.4
20260903095201 76 333 1.0 2.0 0.00 0.00 0.00 95 1014.4
20260903094701 76 102 1.0 1.0 0.00 0.00 0.00 95 1014.5
20260903094201 76 20 1.0 2.0 0.00 0.00 0.00 95 1014.5
20260903093700 76 212 2.0 3.0 0.00 0.00 0.00 95 1014.4
20260903093200 76 202 1.0 1.0 0.00 0.00 0.00 95 1014.4
20260903092700 76 225 1.0 1.0 0.00 0.00 0.00 95 1014.4
20260903092200 77 227 1.0 1.0 0.00 0.00 0.00 95 1014.4
20260903091700 77 262 1.0 3.0 0.00 0.00 0.00 95 1014.4
20260903091200 77 9 1.0 1.0 0.00 0.00 0.00 95 1014.4
20260903090700 77 5 1.0 1.0 0.00 0.00 0.00 95 1014.4
20260903090200 77 73 1.0 1.0 0.00 0.00 0.00 95 1014.5
20260903085701 77 86 2.0 2.0 0.00 0.00 0.00 95 1014.5
20260903085200 77 122 1.0 1.0 0.00 0.00 0.00 95 1014.5
20260903084700 77 146 1.0 3.0 0.00 0.00 0.00 95 1014.5
20260903084201 77 95 1.0 1.0 0.00 0.00 0.00 95 1014.4
20260903083700 77 124 1.0 2.0 0.00 0.00 0.00 95 1014.4
20260903083201 77 51 1.0 2.0 0.00 0.00 0.00 95 1014.4
20260903082701 77 89 1.0 1.0 0.00 0.00 0.00 95 1014.4
20260903082201 77 83 1.0 2.0 0.00 0.00 0.00 95 1014.3
20260903081701 76 61 2.0 3.0 0.00 0.00 0.00 95 1014.2
20260903081201 76 145 2.0 3.0 0.00 0.00 0.00 95 1014.1
20260903080700 76 262 2.0 2.0 0.00 0.00 0.00 95 1014.2
20260903080200 76 59 2.0 3.0 0.00 0.00 0.00 95 1014.3
20260903075700 76 112 1.0 1.0 0.00 0.00 0.00 95 1014.2
20260903075201 76 100 1.0 1.0 0.00 0.00 0.00 95 1014.2
20260903074701 76 241 1.0 1.0 0.00 0.00 0.00 95 1014.3
20260903074200 76 34 1.0 1.0 0.00 0.00 0.00 95 1014.2
20260903073700 76 40 2.0 2.0 0.00 0.00 0.00 95 1014.2
20260903073201 77 65 2.0 2.0 0.00 0.00 0.00 95 1014.3
20260903072700 77 79 1.0 2.0 0.00 0.00 0.00 95 1014.3
20260903072201 76 52 1.0 2.0 0.00 0.00 0.00 95 1014.3
20260903071701 76 87 1.0 1.0 0.00 0.00 0.00 95 1014.3
20260903071201 76 122 2.0 3.0 0.00 0.00 0.00 95 1014.3
20260903070700 76 153 2.0 2.0 0.00 0.00 0.00 95 1014.3
20260903070200 76 151 3.0 4.0 0.00 0.00 0.00 95 1014.3
20260903065700 76 163 2.0 3.0 0.00 0.00 0.00 95 1014.2
20260903065200 76 159 2.0 2.0 0.00 0.00 0.00 95 1014.3
20260903064701 76 173 2.0 2.0 0.00 0.00 0.00 95 1014.3
20260903064200 76 166 3.0 4.0 0.00 0.00 0.00 95 1014.3
20260903063700 76 162 4.0 4.0 0.00 0.00 0.00 95 1014.2
20260903063200 76 185 3.0 4.0 0.00 0.00 0.00 95 1014.1
20260903062700 76 182 2.0 3.0 0.00 0.00 0.00 95 1014.1
20260903062200 76 158 2.0 4.0 0.00 0.00 0.00 95 1014.2
20260903061701 76 160 2.0 2.0 0.00 0.00 0.00 95 1014.2
20260903061201 76 166 2.0 3.0 0.00 0.00 0.00 95 1014.2
20260903060701 76 176 1.0 2.0 0.00 0.00 0.00 95 1014.3
20260903060201 76 175 2.0 3.0 0.00 0.00 0.00 95 1014.4
20260903055701 76 157 2.0 3.0 0.00 0.00 0.00 95 1014.4
20260903055201 76 170 4.0 4.0 0.00 0.00 0.00 95 1014.4
20260903054700 76 174 4.0 5.0 0.00 0.00 0.00 95 1014.4
20260903054200 76 171 3.0 4.0 0.00 0.00 0.00 95 1014.4
20260903053701 76 128 2.0 2.0 0.00 0.00 0.00 95 1014.4
20260903052714 76 150 2.0 4.0 0.00 0.00 0.00 95 1014.2
20260903052200 76 154 2.0 3.0 0.00 0.00 0.00 95 1014.2
20260903051700 76 143 1.0 1.0 0.00 0.00 0.00 95 1014.1
20260903051200 76 167 2.0 2.0 0.00 0.00 0.00 95 1014.0
20260903050700 75 151 1.0 2.0 0.00 0.00 0.00 95 1014.0
20260903050200 75 145 2.0 3.0 0.00 0.00 0.00 95 1014.0
20260903045701 75 158 2.0 3.0 0.00 0.00 0.46 95 1014.0
20260903045200 75 128 1.0 2.0 0.00 0.00 0.46 95 1014.0
20260903044701 75 159 1.0 2.0 0.00 0.00 0.46 95 1014.1
20260903044201 75 144 2.0 3.0 0.00 0.00 0.46 95 1014.2
20260903043701 75 150 1.0 1.0 0.00 0.00 0.46 95 1014.3
20260903043200 75 102 1.0 2.0 0.00 0.00 0.46 95 1014.3
20260903042700 75 133 1.0 1.0 0.00 0.00 0.46 95 1014.3
20260903042200 75 138 2.0 3.0 0.01 0.00 0.46 95 1014.4
20260903041700 75 143 1.0 2.0 0.01 0.00 0.46 95 1014.4
20260903041200 75 178 2.0 3.0 0.01 0.00 0.46 95 1014.5
20260903040700 75 151 2.0 2.0 0.02 0.00 0.46 95 1014.5
20260903040200 75 95 2.0 2.0 0.02 0.00 0.46 94 1014.6
20260903035702 74 152 1.0 2.0 0.03 0.00 0.49 94 1014.6
20260903035200 74 149 1.0 1.0 0.03 0.00 0.49 94 1014.7
20260903034700 74 241 1.0 2.0 0.03 0.00 0.49 94 1014.8
20260903034200 74 175 2.0 3.0 0.04 0.00 0.49 94 1014.8
20260903033702 74 170 2.0 3.0 0.04 0.00 0.49 94 1014.8
20260903033200 75 182 2.0 2.0 0.04 0.00 0.48 94 1014.8
20260903032700 74 170 1.0 2.0 0.04 0.00 0.48 94 1014.9
20260903032203 75 118 1.0 1.0 0.04 0.00 0.47 94 1015.0
20260903031700 75 177 1.0 2.0 0.04 0.00 0.47 94 1015.0
20260903031203 75 191 0.0 1.0 0.05 0.00 0.47 94 1015.0
20260903030700 75 91 0.0 1.0 0.05 0.00 0.47 94 1015.1
20260903030200 75 91 1.0 1.0 0.05 0.00 0.46 94 1015.1
20260903025700 75 101 1.0 1.0 0.05 0.00 0.48 94 1015.2
20260903025200 75 162 0.0 1.0 0.04 0.00 0.48 94 1015.2
20260903024700 75 196 1.0 2.0 0.04 0.00 0.47 94 1015.1
20260903024202 75 360 0.0 0.0 0.04 0.00 0.47 94 1015.0
20260903023701 75 104 1.0 1.0 0.05 0.00 0.46 94 1014.9
20260903023200 75 95 1.0 1.0 0.06 0.00 0.45 94 1014.9
20260903022700 75 360 0.0 0.0 0.06 0.00 0.45 94 1015.0
20260903022201 75 134 1.0 2.0 0.06 0.00 0.44 94 1014.9
20260903021700 75 119 0.0 1.0 0.07 0.00 0.44 94 1014.8
20260903021200 75 1 0.0 0.0 0.07 0.00 0.44 94 1014.8
20260903020701 75 196 1.0 2.0 0.07 0.00 0.43 94 1014.7
20260903020201 75 182 1.0 2.0 0.06 0.00 0.42 94 1014.7
20260903015700 75 360 0.0 0.0 0.06 0.00 0.44 94 1014.7
20260903015200 75 360 0.0 0.0 0.06 0.00 0.43 94 1014.6
20260903014701 74 360 0.0 0.0 0.06 0.00 0.43 94 1014.5
20260903014201 74 339 1.0 2.0 0.04 0.00 0.43 94 1014.5
20260903013700 74 124 1.0 1.0 0.04 0.00 0.43 94 1014.5
20260903013200 74 37 0.0 1.0 0.05 0.00 0.41 94 1014.4
20260903012701 74 4 1.0 1.0 0.09 0.00 0.41 93 1014.4
20260903012200 74 80 1.0 1.0 0.09 0.00 0.40 93 1014.4
20260903011701 74 360 0.0 0.0 0.19 0.00 0.43 93 1014.3
20260903011201 74 360 0.0 0.0 0.22 0.00 0.42 93 1014.3
20260903010700 74 247 1.0 2.0 0.22 0.00 0.41 93 1014.2
20260903010201 74 293 0.0 1.0 0.23 0.00 0.40 93 1014.2
20260903005700 74 202 1.0 2.0 0.25 0.00 0.41 93 1014.2
20260903005200 74 360 0.0 0.0 0.25 0.00 0.41 93 1014.2
20260903004700 74 102 1.0 2.0 0.29 0.00 0.41 93 1014.3
20260903004200 74 40 1.0 3.0 0.27 0.00 0.41 93 1014.5
20260903003700 74 81 1.0 2.0 0.26 0.00 0.41 93 1014.6
20260903003202 74 83 2.0 3.0 0.26 0.00 0.38 93 1014.6
20260903002701 74 77 4.0 6.0 0.26 0.00 0.38 92 1014.7
20260903002200 74 118 2.0 3.0 0.26 0.00 0.36 92 1014.8
20260903001700 74 95 3.0 4.0 0.25 0.00 0.37 91 1014.9
20260903001200 75 95 3.0 3.0 0.20 0.00 0.32 91 1014.9
20260903000700 75 150 4.0 6.0 0.08 0.00 0.24 90 1015.0
20260903000200 76 145 3.0 5.0 0.07 0.00 0.19 90 1015.0
20260902235700 77 171 4.0 5.0 0.07 0.00 0.19 89 1015.0
20260902235200 78 168 4.0 5.0 0.06 0.00 0.18 87 1015.0
20260902234701 80 179 6.0 7.0 0.04 0.00 0.17 84 1014.9
20260902234200 82 185 7.0 11.0 0.00 0.00 0.14 77 1015.2
20260902233700 82 207 5.0 8.0 0.00 0.00 0.12 77 1015.0
20260902233200 83 193 5.0 7.0 0.00 0.00 0.12 79 1015.0
20260902232700 83 204 2.0 5.0 0.00 0.00 0.12 77 1014.9
20260902232200 83 154 2.0 4.0 0.00 0.00 0.12 77 1014.5
20260902231700 83 123 1.0 3.0 0.00 0.00 0.12 77 1014.3
20260902231159 83 150 2.0 3.0 0.00 0.00 0.12 77 1014.3